Regional Weather Roundup
Issued by NWS

Home | Current Version | Previous Version | Text Only | Print | Product List | Glossary Off
Versions: 1 2 3 4 5 6 7 8 9 10 11 12 13 14 15 16 17 18 19 20 21 22 23 24 25 26 27 28 29 30 31 32 33 34 35 36 37 38 39 40 41 42 43 44 45 46 47 48 49 50

000
ASUS43 KDMX 292107
RWRIA

WEATHER ROUNDUP FOR IOWA
NATIONAL WEATHER SERVICE DES MOINES IA
400 PM CDT TUE JUL 29 2014

NOTE: "FAIR" INDICATES FEW OR NO CLOUDS BELOW 12,000 FEET WITH NO
SIGNIFICANT WEATHER AND/OR OBSTRUCTIONS TO VISIBILITY.

* - THESE STATIONS ARE NOT NWS STATIONS...THUS NOT UNDER NWS
QUALITY CONTROL.  THEY ALSO DO NOT REPORT WEATHER SUCH
AS PRECIPITATION OR FOG.

IAZ001>003-012>014-020>022-031>034-043>046-292200-
   NORTHWEST IOWA

CITY           SKY/WX    TMP DP  RH WIND       PRES   REMARKS
CARROLL *      CLOUDY    73  54  49 N5        30.16S
CHEROKEE *     PTSUNNY   75  54  46 NW12      30.16F
DENISON *      PTSUNNY   73  55  53 NW8       30.15F
LE MARS *      PTSUNNY   73  54  49 N5        30.18F
ORANGE CITY *  PTSUNNY   73  48  40 N7        30.18F
SHELDON *      PTSUNNY   75  55  50 VRB6      30.16F
SIOUX CITY     MOSUNNY   79  54  41 N8        30.16F
SPENCER        PTSUNNY   74  54  49 NW7       30.16F
STORM LAKE *   PTSUNNY   73  55  53 VRB6      30.17F
$$

IAZ055>058-069>071-079>083-090>094-292200-
   SOUTHWEST IOWA

CITY           SKY/WX    TMP DP  RH WIND       PRES   REMARKS
ATLANTIC *     SUNNY     75  55  50 NW8       30.15F
AUDUBON *      PTSUNNY   79  59  50 N9        30.17F HX  80
CLARINDA *     PTSUNNY   75  57  53 VRB5      30.16F
COUNCIL BLFS * MOSUNNY   75  55  50 NW7       30.15F
CRESTON *      MOSUNNY   75  55  50 NW10G17   30.15F
HARLAN  *      MOSUNNY   73  55  53 N9        30.20F
LAMONI         MOSUNNY   78  55  44 N9        30.14F
RED OAK *      PTSUNNY   77  55  47 N7        30.16F
SHENANDOAH *   PTSUNNY   77  57  50 N7G15     30.16S
$$

IAZ047>049-059>061-072>074-084-292200-
   CENTRAL IOWA

CITY           SKY/WX    TMP DP  RH WIND       PRES   REMARKS
AMES           MOSUNNY   77  53  43 NW9       30.12F
ANKENY *       PTSUNNY   77  55  47 NW8       30.12F
CHARITON *     PTSUNNY   75  55  50 N7        30.13F
DES MOINES     MOSUNNY   80  52  37 NW7       30.12F HX  80
GRINNELL*      PTSUNNY   75  57  53 W5        30.12F
KNOXVILLE *    SUNNY     77  54  44 NW10      30.11F
MARSHALLTOWN   SUNNY     76  57  51 W8        30.11F
PELLA *        SUNNY     79  57  47 W8        30.13F HX  80
PERRY *          N/A     77  55  47 NW3       30.14F
$$

IAZ004>006-015-016-023>025-035-036-292200-
   NORTH CENTRAL IOWA

CITY           SKY/WX    TMP DP  RH WIND       PRES   REMARKS
ALGONA *       MOSUNNY   75  54  46 NW7       30.14F
CLARION *      MOSUNNY   77  54  44 NW8       30.13F
ESTHERVILLE    SUNNY     74  52  46 W8        30.15F
FORT DODGE *   MOSUNNY   73  57  56 NW3       30.15F
MASON CITY     MOSUNNY   73  54  51 NW7       30.13F
FOREST CITY *  SUNNY     75  54  46 NE8       30.13S
IOWA FALLS *     N/A     77  55  47 W9        30.13F
$$

IAZ007>011-017>019-026>030-037>042-050>054-066-292200-
   NORTHEAST IOWA

CITY           SKY/WX    TMP DP  RH WIND       PRES   REMARKS
CEDAR RAPIDS   MOSUNNY   78  55  44 NW10      30.09F
CHARLES CITY * MOSUNNY   75  55  50 NW12G20   30.11F
CLINTON *      MOSUNNY   77  57  50 NW12G20   30.09F
DECORAH *      MOSUNNY   75  57  53 NW10      30.07F
DUBUQUE        PTSUNNY   76  58  53 NW14      30.07F
MONTICELLO *   MOSUNNY   77  57  50 W13       30.07F
OELWEIN *      MOSUNNY   75  57  53 W10G16    30.10F
WATERLOO       SUNNY     76  55  48 W13       30.08F
$$

IAZ064-065-067-068-078-292200-
   EAST CENTRAL IOWA

CITY           SKY/WX    TMP DP  RH WIND       PRES   REMARKS
DAVENPORT      MOSUNNY   78  57  48 W12       30.08F
IOWA CITY      MOSUNNY   79  58  48 NW10G17   30.10F HX  80
MT. PLEASANT * SUNNY     79  55  44 W9        30.11F
MUSCATINE *    SUNNY     81  55  41 NW13      30.09F HX  80
QUAD CITIES    SUNNY     80  55  42 NW13      30.07F HX  80
$$

IAZ062-063-075>077-085>089-095>099-292200-
   SOUTHEAST IOWA

CITY           SKY/WX    TMP DP  RH WIND       PRES   REMARKS
BURLINGTON     MOSUNNY   75  57  53 NW9       30.10F
FAIRFIELD *    SUNNY     77  57  50 W8        30.12F
FORT MADISON * MOSUNNY   79  57  47 NW6       30.12S HX  80
KEOKUK *       SUNNY     77  57  50 NW7       30.10F
OSKALOOSA *      N/A     77  59  53 NW7       30.12F
CENTERVILLE *  SUNNY     77  57  50 NW10      30.15S
OTTUMWA        SUNNY     77  55  46 W7        30.10F
WASHINGTON *   SUNNY     77  59  53 NW9G17    30.11F
$$

ABBREVIATIONS USED IN REMARKS
   TC - TEMPERATURES IN CELSIUS
  WCI - WIND CHILL INDEX
   HX - HEAT INDEX
  VSB - VISIBILITY
$$




USA.gov is the U.S. government's official web portal to all federal, state and local government web resources and services.